| time (UTC) | temp F | wind direction | speed MPH | gust MPH | rain 1hr in | rain 24hr in | rain mn in | humidity % | barometer mb |
| 20260502193839 | 60 | 222 | 3.0 | 5.0 | 0.00 | 0.00 | 0.00 | 77 | 1006.6 |
| 20260502190840 | 60 | 166 | 2.0 | 5.0 | 0.00 | 0.00 | 0.00 | 76 | 1006.4 |
| 20260502183838 | 61 | 235 | 5.0 | 7.0 | 0.00 | 0.00 | 0.00 | 75 | 1006.3 |
| 20260502180839 | 62 | 242 | 4.0 | 9.0 | 0.00 | 0.00 | 0.00 | 74 | 1006.7 |
| 20260502163840 | 62 | 232 | 8.0 | 13.0 | 0.00 | 0.00 | 0.00 | 67 | 1007.2 |
| 20260502160838 | 68 | 198 | 6.0 | 12.0 | 0.00 | 0.00 | 0.00 | 52 | 1006.8 |
| 20260502150840 | 69 | 218 | 8.0 | 11.0 | 0.00 | 0.00 | 0.00 | 50 | 1007.7 |
| 20260502120838 | 84 | 159 | 7.0 | 6.0 | 0.00 | 0.00 | 0.00 | 45 | 1009.2 |
| 20260502113839 | 85 | 122 | 1.0 | 3.0 | 0.00 | 0.00 | 0.00 | 48 | 1009.8 |
| 20260502110839 | 81 | 15 | 2.0 | 2.0 | 0.00 | 0.00 | 0.00 | 53 | 1010.2 |
| 20260502103840 | 76 | 117 | 1.0 | 4.0 | 0.00 | 0.00 | 0.00 | 60 | 1010.4 |
| 20260502100838 | 74 | 92 | 2.0 | 3.0 | 0.00 | 0.00 | 0.00 | 63 | 1010.8 |
| 20260502090839 | 62 | 9 | 1.0 | 3.0 | 0.00 | 0.00 | 0.00 | 80 | 1011.8 |
| 20260502070838 | 59 | 8 | 1.0 | 2.0 | 0.00 | 0.00 | 0.00 | 87 | 1012.4 |
| 20260502063838 | 57 | 39 | 0.0 | 0.0 | 0.00 | 0.00 | 0.00 | 88 | 1012.2 |
| 20260502060735 | 56 | 22 | 0.0 | 0.0 | 0.00 | 0.00 | 0.00 | 89 | 1012.2 |
| 20260502053736 | 55 | 270 | 0.0 | 0.0 | 0.00 | 0.00 | 0.00 | 89 | 1012.3 |
| 20260502050735 | 54 | 294 | 0.0 | 0.0 | 0.00 | 0.00 | 0.00 | 89 | 1012.3 |
| 20260502043734 | 54 | 22 | 0.0 | 0.0 | 0.00 | 0.00 | 0.00 | 89 | 1012.2 |
| 20260502040734 | 55 | 292 | 0.0 | 0.0 | 0.00 | 0.00 | 0.00 | 88 | 1012.4 |
| 20260502033735 | 55 | 200 | 0.0 | 2.0 | 0.00 | 0.00 | 0.00 | 88 | 1012.8 |
| 20260502030734 | 56 | 216 | 0.0 | 0.0 | 0.00 | 0.00 | 0.00 | 88 | 1012.9 |
| 20260502025341 | 55 | 185 | 0.0 | 1.0 | 0.00 | 0.00 | 0.00 | 88 | 1012.9 |
| 20260502022341 | 55 | 246 | 0.0 | 3.0 | 0.00 | 0.00 | 0.00 | 87 | 1013.1 |
| 20260502015341 | 55 | 225 | 0.0 | 0.0 | 0.00 | 0.00 | 0.00 | 87 | 1013.1 |
| 20260502012340 | 56 | 338 | 0.0 | 0.0 | 0.00 | 0.00 | 0.00 | 87 | 1013.2 |
| 20260502005340 | 56 | 7 | 3.0 | 3.0 | 0.00 | 0.00 | 0.00 | 87 | 1013.2 |
| 20260502002342 | 56 | 4 | 2.0 | 4.0 | 0.00 | 0.00 | 0.00 | 87 | 1013.6 |
| 20260501235342 | 56 | 15 | 2.0 | 4.0 | 0.00 | 0.00 | 0.00 | 86 | 1013.9 |
| 20260501232341 | 56 | 5 | 3.0 | 3.0 | 0.00 | 0.00 | 0.00 | 85 | 1014.2 |
| 20260501225341 | 57 | 329 | 1.0 | 3.0 | 0.00 | 0.00 | 0.00 | 84 | 1014.6 |
| 20260501222340 | 58 | 278 | 0.0 | 2.0 | 0.00 | 0.00 | 0.00 | 85 | 1014.6 |
| 20260501215342 | 58 | 352 | 4.0 | 6.0 | 0.00 | 0.00 | 0.00 | 84 | 1014.4 |
| 20260501212342 | 58 | 315 | 0.0 | 0.0 | 0.00 | 0.00 | 0.00 | 83 | 1014.3 |
| 20260501205340 | 60 | 285 | 0.0 | 0.0 | 0.00 | 0.00 | 0.00 | 83 | 1014.4 |
| 20260501202340 | 59 | 0 | 0.0 | 0.0 | 0.00 | 0.00 | 0.00 | 82 | 1014.2 |
| 20260501195341 | 60 | 45 | 0.0 | 0.0 | 0.00 | 0.00 | 0.00 | 81 | 1014.0 |